TimeEST,TemperatureF,Dew PointF,Humidity,Sea Level PressureIn,VisibilityMPH,Wind Direction,Wind SpeedMPH,Gust SpeedMPH,PrecipitationIn,Events,Conditions,WindDirDegrees,DateUTC
12:53 AM,30.9,19.0,61,30.11,10.0,West,10.4,-,N/A,,Overcast,270,2012-11-24 05:53:00
1:53 AM,30.0,19.0,64,30.12,10.0,West,10.4,-,N/A,,Overcast,270,2012-11-24 06:53:00
2:53 AM,30.0,19.0,64,30.13,10.0,West,10.4,19.6,N/A,,Overcast,280,2012-11-24 07:53:00
3:53 AM,30.0,19.0,64,30.13,10.0,West,10.4,-,N/A,,Overcast,280,2012-11-24 08:53:00
4:53 AM,30.0,19.9,66,30.14,10.0,West,10.4,-,N/A,,Overcast,280,2012-11-24 09:53:00
5:53 AM,30.0,19.9,66,30.14,10.0,West,10.4,-,N/A,,Overcast,280,2012-11-24 10:53:00
6:53 AM,30.0,19.9,66,30.16,10.0,West,9.2,-,N/A,,Overcast,280,2012-11-24 11:53:00
7:53 AM,30.0,21.0,69,30.17,10.0,WNW,5.8,-,N/A,,Overcast,290,2012-11-24 12:53:00
8:53 AM,30.0,21.0,69,30.18,8.0,West,10.4,-,0.00,Snow,Light Snow,280,2012-11-24 13:53:00
9:53 AM,30.0,21.9,72,30.19,6.0,West,8.1,16.1,0.00,,Haze,280,2012-11-24 14:53:00
10:53 AM,30.0,21.9,72,30.20,3.0,WNW,10.4,17.3,0.00,Snow,Light Snow,290,2012-11-24 15:53:00
11:24 AM,30.2,23.0,75,30.17,7.0,West,11.5,17.3,0.00,,Overcast,280,2012-11-24 16:24:00
11:53 AM,32.0,23.0,69,30.18,10.0,West,11.5,-,0.00,,Overcast,280,2012-11-24 16:53:00
12:53 PM,32.0,21.0,64,30.16,10.0,West,11.5,-,N/A,,Overcast,270,2012-11-24 17:53:00
1:53 PM,32.0,21.0,64,30.16,10.0,West,10.4,-,N/A,,Overcast,280,2012-11-24 18:53:00
2:53 PM,33.1,19.9,59,30.15,10.0,WNW,12.7,-,N/A,,Overcast,290,2012-11-24 19:53:00
3:53 PM,32.0,19.0,59,30.17,10.0,WNW,8.1,17.3,N/A,,Overcast,300,2012-11-24 20:53:00
4:53 PM,32.0,19.0,59,30.18,10.0,WNW,8.1,-,N/A,,Overcast,300,2012-11-24 21:53:00
5:32 PM,30.2,19.4,64,30.15,10.0,WNW,6.9,-,N/A,,Overcast,300,2012-11-24 22:32:00
5:53 PM,30.9,19.0,61,30.19,10.0,WNW,9.2,-,N/A,,Overcast,300,2012-11-24 22:53:00
6:38 PM,30.2,19.4,64,30.16,10.0,West,10.4,-,N/A,,Overcast,270,2012-11-24 23:38:00
6:53 PM,30.9,19.0,61,30.19,10.0,WNW,5.8,-,N/A,,Overcast,290,2012-11-24 23:53:00
7:53 PM,30.9,19.0,61,30.18,10.0,West,8.1,-,N/A,,Overcast,280,2012-11-25 00:53:00
8:53 PM,30.0,19.9,66,30.17,10.0,West,8.1,-,N/A,,Overcast,270,2012-11-25 01:53:00
9:53 PM,30.0,19.0,64,30.17,10.0,West,6.9,-,N/A,,Overcast,280,2012-11-25 02:53:00
10:07 PM,30.2,19.4,64,30.14,10.0,West,5.8,-,N/A,,Overcast,280,2012-11-25 03:07:00
10:53 PM,30.0,19.0,64,30.14,10.0,West,3.5,-,N/A,,Overcast,270,2012-11-25 03:53:00
11:53 PM,30.0,19.0,64,30.14,10.0,West,4.6,-,N/A,,Overcast,260,2012-11-25 04:53:00